| time (UTC) | temp F | wind direction | speed MPH | gust MPH | rain 1hr in | rain 24hr in | rain mn in | humidity % | barometer mb |
| 20260905182003 | 89 | 288 | 2.0 | 5.0 | 0.00 | 0.00 | 0.00 | 73 | 1012.0 |
| 20260905181005 | 88 | 296 | 1.0 | 4.0 | 0.00 | 0.00 | 0.00 | 75 | 1012.0 |
| 20260905180005 | 87 | 286 | 2.0 | 6.0 | 0.00 | 0.00 | 0.00 | 77 | 1012.1 |
| 20260905175003 | 85 | 277 | 2.0 | 5.0 | 0.00 | 0.00 | 0.00 | 81 | 1012.0 |
| 20260905174002 | 85 | 273 | 3.0 | 7.0 | 0.00 | 0.00 | 0.00 | 83 | 1012.2 |
| 20260905173002 | 85 | 300 | 2.0 | 9.0 | 0.00 | 0.00 | 0.00 | 80 | 1012.5 |
| 20260905172008 | 85 | 327 | 5.0 | 11.0 | 0.00 | 0.00 | 0.00 | 76 | 1012.6 |
| 20260905171003 | 87 | 288 | 7.0 | 12.0 | 0.00 | 0.00 | 0.00 | 72 | 1012.7 |
| 20260905170007 | 89 | 314 | 8.0 | 15.0 | 0.00 | 0.00 | 0.00 | 69 | 1012.8 |
| 20260905165002 | 91 | 306 | 5.0 | 15.0 | 0.00 | 0.00 | 0.00 | 71 | 1013.2 |
| 20260905164004 | 91 | 244 | 4.0 | 9.0 | 0.00 | 0.00 | 0.00 | 67 | 1013.0 |
| 20260905163002 | 91 | 201 | 4.0 | 7.0 | 0.00 | 0.00 | 0.00 | 67 | 1013.0 |
| 20260905162005 | 91 | 273 | 4.0 | 9.0 | 0.00 | 0.00 | 0.00 | 69 | 1013.1 |
| 20260905161002 | 90 | 269 | 3.0 | 8.0 | 0.00 | 0.00 | 0.00 | 69 | 1013.1 |
| 20260905160007 | 90 | 236 | 2.0 | 8.0 | 0.00 | 0.00 | 0.00 | 69 | 1013.1 |
| 20260905155002 | 89 | 269 | 1.0 | 6.0 | 0.00 | 0.00 | 0.00 | 70 | 1013.3 |
| 20260905154004 | 89 | 258 | 2.0 | 7.0 | 0.00 | 0.00 | 0.00 | 69 | 1013.4 |
| 20260905153002 | 89 | 196 | 2.0 | 7.0 | 0.00 | 0.00 | 0.00 | 71 | 1013.4 |
| 20260905151002 | 88 | 202 | 2.0 | 5.0 | 0.00 | 0.00 | 0.00 | 74 | 1013.4 |
| 20260905150006 | 88 | 221 | 3.0 | 8.0 | 0.00 | 0.00 | 0.00 | 75 | 1013.5 |
| 20260905144002 | 88 | 192 | 1.0 | 4.0 | 0.00 | 0.00 | 0.00 | 77 | 1013.5 |
| 20260905143003 | 87 | 198 | 1.0 | 4.0 | 0.00 | 0.00 | 0.00 | 78 | 1013.5 |
| 20260905142212 | 86 | 200 | 0.0 | 3.0 | 0.00 | 0.00 | 0.00 | 79 | 1013.6 |
| 20260905140006 | 86 | 198 | 1.0 | 5.0 | 0.00 | 0.00 | 0.00 | 81 | 1013.3 |
| 20260905135002 | 85 | 190 | 0.0 | 2.0 | 0.00 | 0.00 | 0.00 | 82 | 1013.3 |
| 20260905130007 | 83 | 161 | 0.0 | 0.0 | 0.00 | 0.00 | 0.00 | 87 | 1013.4 |
| 20260905124004 | 81 | 161 | 0.0 | 0.0 | 0.00 | 0.00 | 0.00 | 89 | 1013.3 |
| 20260905123002 | 80 | 114 | 0.0 | 0.0 | 0.00 | 0.00 | 0.00 | 94 | 1013.4 |
| 20260905122004 | 78 | 114 | 0.0 | 0.0 | 0.00 | 0.00 | 0.00 | 95 | 1013.3 |
| 20260905121002 | 77 | 114 | 0.0 | 0.0 | 0.00 | 0.00 | 0.00 | 95 | 1013.2 |
| 20260905115002 | 77 | 114 | 0.0 | 0.0 | 0.00 | 0.00 | 0.00 | 95 | 1013.1 |
| 20260905114004 | 76 | 114 | 0.0 | 0.0 | 0.00 | 0.00 | 0.00 | 94 | 1012.8 |
| 20260905113002 | 76 | 114 | 0.0 | 0.0 | 0.00 | 0.00 | 0.00 | 94 | 1012.8 |
| 20260905110006 | 76 | 114 | 0.0 | 0.0 | 0.00 | 0.00 | 0.00 | 94 | 1012.6 |
| 20260905105002 | 76 | 114 | 0.0 | 0.0 | 0.00 | 0.00 | 0.00 | 94 | 1012.6 |
| 20260905104004 | 76 | 114 | 0.0 | 0.0 | 0.00 | 0.00 | 0.00 | 94 | 1012.4 |
| 20260905103002 | 77 | 114 | 0.0 | 0.0 | 0.00 | 0.00 | 0.00 | 94 | 1012.4 |
| 20260905102004 | 77 | 114 | 0.0 | 0.0 | 0.00 | 0.00 | 0.00 | 93 | 1012.5 |
| 20260905101002 | 77 | 114 | 0.0 | 0.0 | 0.00 | 0.00 | 0.00 | 93 | 1012.3 |
| 20260905100005 | 77 | 114 | 0.0 | 0.0 | 0.00 | 0.00 | 0.00 | 93 | 1012.3 |
| 20260905095001 | 77 | 114 | 0.0 | 0.0 | 0.00 | 0.00 | 0.00 | 93 | 1012.2 |
| 20260905094003 | 77 | 114 | 0.0 | 0.0 | 0.00 | 0.00 | 0.00 | 93 | 1012.0 |
| 20260905093001 | 77 | 114 | 0.0 | 0.0 | 0.00 | 0.00 | 0.00 | 93 | 1012.1 |
| 20260905092003 | 77 | 114 | 0.0 | 0.0 | 0.00 | 0.00 | 0.00 | 93 | 1012.2 |
| 20260905091002 | 77 | 114 | 0.0 | 0.0 | 0.00 | 0.00 | 0.00 | 93 | 1012.1 |
| 20260905090005 | 78 | 114 | 0.0 | 0.0 | 0.00 | 0.00 | 0.00 | 93 | 1012.0 |
| 20260905085001 | 78 | 114 | 0.0 | 0.0 | 0.00 | 0.00 | 0.00 | 92 | 1012.1 |
| 20260905084003 | 78 | 114 | 0.0 | 0.0 | 0.00 | 0.00 | 0.00 | 92 | 1012.1 |
| 20260905082003 | 78 | 114 | 0.0 | 0.0 | 0.00 | 0.00 | 0.00 | 93 | 1012.2 |
| 20260905081001 | 78 | 114 | 0.0 | 0.0 | 0.00 | 0.00 | 0.00 | 93 | 1012.1 |
| 20260905080005 | 78 | 114 | 0.0 | 3.0 | 0.00 | 0.00 | 0.00 | 93 | 1012.0 |
| 20260905074003 | 78 | 114 | 0.0 | 3.0 | 0.00 | 0.00 | 0.00 | 94 | 1012.1 |
| 20260905072003 | 78 | 115 | 0.0 | 0.0 | 0.00 | 0.00 | 0.00 | 94 | 1012.2 |
| 20260905071001 | 78 | 115 | 0.0 | 3.0 | 0.00 | 0.00 | 0.00 | 94 | 1012.2 |
| 20260905070005 | 78 | 113 | 0.0 | 0.0 | 0.00 | 0.00 | 0.00 | 94 | 1012.2 |
| 20260905065001 | 78 | 113 | 0.0 | 0.0 | 0.00 | 0.00 | 0.00 | 94 | 1012.4 |
| 20260905064001 | 78 | 114 | 1.0 | 3.0 | 0.00 | 0.00 | 0.00 | 94 | 1012.5 |
| 20260905063003 | 78 | 115 | 0.0 | 0.0 | 0.00 | 0.00 | 0.00 | 94 | 1012.5 |
| 20260905062001 | 78 | 115 | 0.0 | 0.0 | 0.00 | 0.00 | 0.00 | 94 | 1012.7 |
| 20260905061003 | 78 | 115 | 0.0 | 0.0 | 0.00 | 0.00 | 0.00 | 94 | 1012.7 |
| 20260905060004 | 78 | 115 | 0.0 | 1.0 | 0.00 | 0.00 | 0.00 | 93 | 1012.7 |
| 20260905055000 | 79 | 115 | 0.0 | 2.0 | 0.00 | 0.00 | 0.00 | 93 | 1012.8 |
| 20260905054001 | 79 | 115 | 0.0 | 2.0 | 0.00 | 0.00 | 0.00 | 93 | 1013.2 |
| 20260905053001 | 79 | 115 | 0.0 | 0.0 | 0.00 | 0.00 | 0.00 | 93 | 1013.2 |
| 20260905052001 | 79 | 115 | 0.0 | 0.0 | 0.00 | 0.00 | 0.00 | 92 | 1013.2 |
| 20260905051001 | 79 | 115 | 0.0 | 0.0 | 0.00 | 0.00 | 0.00 | 92 | 1013.2 |
| 20260905044005 | 80 | 115 | 0.0 | 0.0 | 0.00 | 0.00 | 0.00 | 91 | 1013.4 |
| 20260905043003 | 80 | 115 | 0.0 | 0.0 | 0.00 | 0.00 | 0.00 | 90 | 1013.6 |
| 20260905042004 | 80 | 115 | 0.0 | 0.0 | 0.00 | 0.00 | 0.00 | 90 | 1013.5 |
| 20260905040009 | 80 | 115 | 0.0 | 3.0 | 0.00 | 0.00 | 0.00 | 89 | 1013.3 |
| 20260905035003 | 80 | 214 | 0.0 | 0.0 | 0.00 | 0.00 | 0.00 | 89 | 1013.4 |
| 20260905034005 | 80 | 268 | 0.0 | 0.0 | 0.00 | 0.00 | 0.00 | 88 | 1013.4 |
| 20260905033002 | 81 | 268 | 0.0 | 2.0 | 0.00 | 0.00 | 0.00 | 88 | 1013.4 |
| 20260905032008 | 81 | 268 | 0.0 | 0.0 | 0.00 | 0.00 | 0.00 | 89 | 1013.6 |
| 20260905030007 | 81 | 269 | 0.0 | 0.0 | 0.00 | 0.00 | 0.00 | 88 | 1013.7 |
| 20260905023003 | 82 | 276 | 0.0 | 0.0 | 0.00 | 0.00 | 0.00 | 86 | 1013.9 |
| 20260905022005 | 82 | 276 | 0.0 | 0.0 | 0.00 | 0.00 | 0.00 | 86 | 1014.1 |
| 20260905021003 | 83 | 276 | 0.0 | 0.0 | 0.00 | 0.00 | 0.00 | 85 | 1014.1 |
| 20260905020007 | 83 | 276 | 0.0 | 0.0 | 0.00 | 0.00 | 0.00 | 84 | 1014.0 |
| 20260905015003 | 83 | 276 | 0.0 | 0.0 | 0.00 | 0.00 | 0.00 | 83 | 1013.8 |
| 20260905014005 | 84 | 276 | 0.0 | 0.0 | 0.00 | 0.00 | 0.00 | 83 | 1013.9 |
| 20260905013003 | 84 | 276 | 0.0 | 1.0 | 0.00 | 0.00 | 0.00 | 82 | 1013.7 |
| 20260905012005 | 84 | 276 | 1.0 | 4.0 | 0.00 | 0.00 | 0.00 | 81 | 1013.7 |
| 20260905011002 | 85 | 280 | 0.0 | 2.0 | 0.00 | 0.00 | 0.00 | 81 | 1013.5 |
| 20260905005003 | 85 | 280 | 0.0 | 1.0 | 0.00 | 0.00 | 0.00 | 79 | 1013.6 |
| 20260905004003 | 85 | 279 | 0.0 | 1.0 | 0.00 | 0.00 | 0.00 | 78 | 1013.5 |
| 20260905003006 | 85 | 279 | 0.0 | 2.0 | 0.00 | 0.00 | 0.00 | 77 | 1013.4 |
| 20260905002002 | 86 | 279 | 1.0 | 3.0 | 0.00 | 0.00 | 0.00 | 76 | 1013.1 |
| 20260905001003 | 86 | 277 | 1.0 | 4.0 | 0.00 | 0.00 | 0.00 | 75 | 1013.1 |
| 20260905000007 | 86 | 275 | 1.0 | 4.0 | 0.00 | 0.00 | 0.00 | 75 | 1012.9 |
| 20260904235002 | 87 | 292 | 2.0 | 4.0 | 0.00 | 0.00 | 0.00 | 75 | 1012.7 |
| 20260904234005 | 87 | 273 | 3.0 | 7.0 | 0.00 | 0.00 | 0.00 | 75 | 1012.7 |
| 20260904233002 | 88 | 269 | 4.0 | 8.0 | 0.00 | 0.00 | 0.00 | 75 | 1012.3 |
| 20260904230007 | 89 | 261 | 3.0 | 7.0 | 0.00 | 0.00 | 0.00 | 73 | 1012.2 |
| 20260904225002 | 88 | 273 | 4.0 | 7.0 | 0.00 | 0.00 | 0.00 | 74 | 1012.1 |
| 20260904224004 | 88 | 198 | 4.0 | 8.0 | 0.00 | 0.00 | 0.00 | 72 | 1011.9 |
| 20260904222004 | 89 | 229 | 4.0 | 11.0 | 0.00 | 0.00 | 0.00 | 71 | 1012.2 |
| 20260904221002 | 89 | 230 | 4.0 | 10.0 | 0.00 | 0.00 | 0.00 | 69 | 1012.2 |
| 20260904215005 | 90 | 216 | 4.0 | 8.0 | 0.00 | 0.00 | 0.00 | 70 | 1012.3 |
| 20260904214002 | 90 | 214 | 5.0 | 10.0 | 0.00 | 0.00 | 0.00 | 69 | 1012.1 |
| 20260904213005 | 90 | 198 | 6.0 | 11.0 | 0.00 | 0.00 | 0.00 | 71 | 1012.1 |
| 20260904212002 | 91 | 239 | 5.0 | 11.0 | 0.00 | 0.00 | 0.00 | 72 | 1012.1 |
| 20260904211004 | 91 | 240 | 5.0 | 10.0 | 0.00 | 0.00 | 0.00 | 71 | 1012.1 |
| 20260904210005 | 91 | 239 | 5.0 | 10.0 | 0.00 | 0.00 | 0.00 | 70 | 1011.9 |
| 20260904205002 | 91 | 211 | 5.0 | 11.0 | 0.00 | 0.00 | 0.00 | 70 | 1011.9 |
| 20260904204002 | 91 | 202 | 6.0 | 10.0 | 0.00 | 0.00 | 0.00 | 71 | 1012.1 |
| 20260904203002 | 91 | 220 | 5.0 | 10.0 | 0.00 | 0.00 | 0.00 | 68 | 1011.9 |
| 20260904202003 | 91 | 192 | 6.0 | 12.0 | 0.00 | 0.00 | 0.00 | 67 | 1012.2 |
| 20260904201003 | 92 | 198 | 5.0 | 12.0 | 0.00 | 0.00 | 0.00 | 68 | 1012.4 |
| 20260904200006 | 92 | 210 | 5.0 | 11.0 | 0.00 | 0.00 | 0.00 | 69 | 1012.5 |
| 20260904194002 | 92 | 243 | 5.0 | 10.0 | 0.00 | 0.00 | 0.00 | 67 | 1012.4 |
| 20260904193002 | 91 | 191 | 5.0 | 11.0 | 0.00 | 0.00 | 0.00 | 70 | 1012.6 |
| 20260904192002 | 92 | 211 | 5.0 | 10.0 | 0.00 | 0.00 | 0.00 | 67 | 1012.6 |
| 20260904191002 | 92 | 238 | 5.0 | 10.0 | 0.00 | 0.00 | 0.00 | 68 | 1012.8 |
| 20260904185002 | 92 | 213 | 6.0 | 14.0 | 0.00 | 0.00 | 0.00 | 70 | 1013.2 |
| 20260904184002 | 92 | 269 | 5.0 | 12.0 | 0.00 | 0.00 | 0.00 | 69 | 1013.2 |
| 20260904183002 | 92 | 209 | 5.0 | 13.0 | 0.00 | 0.00 | 0.00 | 67 | 1013.5 |